Weather History for Puyallup, WA

Change the Weather History Date:

Thursday, February 14, 2013

  Actual Average (KTCM) Record (KTCM)
Temperature  
Mean Temperature 44 °F -  
Max Temperature 50 °F 47 °F 61 °F (1991)
Min Temperature 39 °F 30 °F 16 °F (1995)
Degree Days  
Heating Degree Days 20    
Moisture  
Dew Point 43 °F    
Average Humidity 96    
Maximum Humidity 100    
Minimum Humidity 87    
Precipitation  
Precipitation 0.00 in - - ()
Sea Level Pressure  
Sea Level Pressure 30.53 in    
Wind  
Wind Speed 1 mph (SW)    
Max Wind Speed 4 mph    
Max Gust Speed -    
Visibility 10 miles    
Events Rain    
Averages and records for this station are not official NWS values.
T = Trace of Precipitation, MM = Missing Value Source: NWS Daily Summary

Daily Weather History Graph

Daily Weather History Graph

Search for Another Location

Airport:

Trip Planner

Search our weather history database for the weather conditions in past years. The results will help you decide how hot, cold, wet, or windy it might be!

Date:

Astronomy

Feb. 14, 2013 Rise Set
Actual Time 7:14 AM PST 5:32 PM PST
Civil Twilight 6:43 AM PST 6:03 PM PST
Nautical Twilight 6:07 AM PST 6:39 PM PST
Astronomical Twilight 5:32 AM PST 7:15 PM PST
Moon 8:57 AM PST (2/14) 11:05 PM PST (2/14)
Length of Visible Light 11h 20m
Length of Day
10h 17m
Waxing Crescent, 22% of the Moon is Illuminated
Feb 14
Waxing Crescent
Feb 17
First Quarter
Feb 25
Full
Mar 4
Last Quarter
Mar 11
New

Hourly Weather History & Observations

Time (PST) Temp. Windchill Dew Point Humidity Pressure Visibility Wind Dir Wind Speed Gust Speed Precip Events Conditions
12:15 AM 41.0 °F 39.0 °F 41.0 °F 100% 30.52 in 10.0 mi West 3.5 mph - N/A   Overcast
12:35 AM 41.0 °F - 41.0 °F 100% 30.52 in 10.0 mi Calm Calm - N/A   Overcast
12:55 AM 41.0 °F - 41.0 °F 100% 30.51 in 10.0 mi Calm Calm - N/A   Overcast
1:15 AM 41.0 °F 39.0 °F 39.2 °F 93% 30.51 in 10.0 mi SW 3.5 mph - N/A   Overcast
1:35 AM 41.0 °F - 39.2 °F 93% 30.52 in 10.0 mi Calm Calm - N/A   Mostly Cloudy
1:55 AM 41.0 °F - 39.2 °F 93% 30.52 in 10.0 mi Calm Calm - N/A   Mostly Cloudy
2:15 AM 41.0 °F - 39.2 °F 93% 30.52 in 10.0 mi Calm Calm - N/A   Mostly Cloudy
2:35 AM 41.0 °F - 39.2 °F 93% 30.52 in 10.0 mi Calm Calm - N/A   Mostly Cloudy
2:55 AM 41.0 °F - 39.2 °F 93% 30.52 in 10.0 mi Calm Calm - N/A   Scattered Clouds
3:15 AM 41.0 °F - 39.2 °F 93% 30.52 in 10.0 mi Calm Calm - N/A   Mostly Cloudy
3:35 AM 41.0 °F - 39.2 °F 93% 30.51 in 10.0 mi Calm Calm - N/A   Mostly Cloudy
3:55 AM 41.0 °F - 39.2 °F 93% 30.51 in 10.0 mi Calm Calm - N/A   Overcast
4:15 AM 39.2 °F - 39.2 °F 100% 30.50 in 10.0 mi Calm Calm - N/A   Overcast
4:35 AM 39.2 °F - 39.2 °F 100% 30.51 in 10.0 mi Calm Calm - N/A   Mostly Cloudy
4:55 AM 39.2 °F - 39.2 °F 100% 30.51 in 10.0 mi Calm Calm - N/A   Mostly Cloudy
5:15 AM 39.2 °F - 39.2 °F 100% 30.51 in 10.0 mi Calm Calm - N/A   Scattered Clouds
5:35 AM 39.2 °F - 39.2 °F 100% 30.51 in 10.0 mi Calm Calm - N/A   Mostly Cloudy
5:55 AM 41.0 °F - 39.2 °F 93% 30.52 in 10.0 mi Calm Calm - N/A   Overcast
6:15 AM 39.2 °F - 39.2 °F 100% 30.52 in 10.0 mi Calm Calm - N/A   Overcast
6:35 AM 39.2 °F - 39.2 °F 100% 30.53 in 10.0 mi Calm Calm - N/A   Overcast
6:55 AM 39.2 °F - 39.2 °F 100% 30.53 in 9.0 mi Calm Calm - N/A Rain Light Rain
7:15 AM 39.2 °F - 39.2 °F 100% 30.53 in 10.0 mi Calm Calm - N/A Rain Light Rain
7:35 AM 39.2 °F - 39.2 °F 100% 30.53 in 8.0 mi Calm Calm - N/A Rain Light Rain
7:55 AM 39.2 °F - 39.2 °F 100% 30.52 in 10.0 mi Calm Calm - N/A Rain Light Rain
8:15 AM 39.2 °F - 39.2 °F 100% 30.53 in 10.0 mi Calm Calm - N/A   Overcast
8:35 AM 39.2 °F - 39.2 °F 100% 30.53 in 10.0 mi Calm Calm - N/A   Overcast
8:55 AM 41.0 °F - 41.0 °F 100% 30.54 in 10.0 mi Calm Calm - N/A   Overcast
9:15 AM 41.0 °F - 41.0 °F 100% 30.54 in 10.0 mi Calm Calm - N/A   Overcast
9:35 AM 41.0 °F - 41.0 °F 100% 30.55 in 10.0 mi Calm Calm - N/A   Overcast
9:55 AM 42.8 °F - 41.0 °F 93% 30.55 in 10.0 mi Calm Calm - N/A   Overcast
10:15 AM 42.8 °F - 41.0 °F 93% 30.55 in 10.0 mi Calm Calm - N/A   Mostly Cloudy
10:35 AM 42.8 °F - 41.0 °F 93% 30.55 in 10.0 mi Calm Calm - N/A   Mostly Cloudy
10:55 AM 44.6 °F - 41.0 °F 87% 30.55 in 10.0 mi Calm Calm - N/A   Mostly Cloudy
11:15 AM 46.4 °F - 42.8 °F 87% 30.54 in 10.0 mi Calm Calm - N/A   Mostly Cloudy
11:35 AM 46.4 °F - 44.6 °F 93% 30.54 in 10.0 mi Calm Calm - N/A   Mostly Cloudy
11:55 AM 48.2 °F - 44.6 °F 87% 30.55 in 8.0 mi Calm Calm - N/A   Overcast
12:15 PM 46.4 °F 45.2 °F 44.6 °F 93% 30.54 in 8.0 mi SSW 3.5 mph - N/A   Overcast
12:35 PM 48.2 °F - 44.6 °F 87% 30.54 in 10.0 mi SSW 3.5 mph - N/A   Overcast
12:55 PM 48.2 °F - 44.6 °F 87% 30.54 in 7.0 mi SSW 3.5 mph - N/A   Mostly Cloudy
1:15 PM 48.2 °F - 44.6 °F 87% 30.54 in 9.0 mi Calm Calm - N/A   Overcast
1:35 PM 48.2 °F - 44.6 °F 87% 30.54 in 10.0 mi Calm Calm - N/A   Overcast
1:55 PM 48.2 °F - 46.4 °F 93% 30.55 in 10.0 mi Calm Calm - N/A   Overcast
2:15 PM 48.2 °F - 44.6 °F 87% 30.55 in 10.0 mi Calm Calm - N/A   Overcast
2:35 PM 48.2 °F - 46.4 °F 93% 30.54 in 3.0 mi Calm Calm - N/A   Overcast
2:55 PM 48.2 °F - 46.4 °F 93% 30.54 in 10.0 mi Calm Calm - N/A   Overcast
3:15 PM 48.2 °F - 46.4 °F 93% 30.54 in 10.0 mi Calm Calm - N/A   Mostly Cloudy
3:35 PM 48.2 °F - 46.4 °F 93% 30.54 in 10.0 mi Calm Calm - N/A   Mostly Cloudy
3:55 PM 50.0 °F - 46.4 °F 87% 30.53 in 10.0 mi Calm Calm - N/A   Mostly Cloudy
4:15 PM 50.0 °F - 46.4 °F 87% 30.54 in 10.0 mi Calm Calm - N/A   Mostly Cloudy
4:35 PM 48.2 °F - 44.6 °F 87% 30.54 in 10.0 mi Calm Calm - N/A   Overcast
4:55 PM 48.2 °F - 44.6 °F 87% 30.53 in 10.0 mi Calm Calm - N/A   Overcast
5:15 PM 48.2 °F - 46.4 °F 93% 30.53 in 10.0 mi Calm Calm - N/A   Overcast
5:35 PM 48.2 °F - 46.4 °F 93% 30.53 in 10.0 mi Calm Calm - N/A   Overcast
5:55 PM 48.2 °F - 46.4 °F 93% 30.53 in 10.0 mi Calm Calm - N/A   Overcast
6:15 PM 48.2 °F - 46.4 °F 93% 30.53 in 10.0 mi Calm Calm - N/A   Overcast
6:35 PM 46.4 °F - 46.4 °F 100% 30.54 in 10.0 mi Calm Calm - N/A   Overcast
6:55 PM 46.4 °F - 46.4 °F 100% 30.54 in 10.0 mi Calm Calm - N/A   Overcast
7:15 PM 46.4 °F - 46.4 °F 100% 30.54 in 10.0 mi Calm Calm - N/A   Overcast
7:35 PM 46.4 °F - 46.4 °F 100% 30.54 in 10.0 mi Calm Calm - N/A   Overcast
7:55 PM 46.4 °F - 46.4 °F 100% 30.54 in 10.0 mi Calm Calm - N/A   Overcast
8:15 PM 46.4 °F - 46.4 °F 100% 30.54 in 10.0 mi Calm Calm - N/A   Overcast
8:35 PM 46.4 °F - 46.4 °F 100% 30.54 in 10.0 mi Calm Calm - N/A   Overcast
8:55 PM 46.4 °F - 46.4 °F 100% 30.54 in 10.0 mi Calm Calm - N/A   Overcast
9:15 PM 46.4 °F - 46.4 °F 100% 30.54 in 10.0 mi Calm Calm - N/A   Overcast
9:35 PM 46.4 °F - 46.4 °F 100% 30.54 in 10.0 mi Calm Calm - N/A   Overcast
9:55 PM 46.4 °F - 46.4 °F 100% 30.54 in 10.0 mi Calm Calm - N/A   Overcast
10:15 PM 44.6 °F - 44.6 °F 100% 30.54 in 10.0 mi Calm Calm - N/A   Overcast
10:35 PM 44.6 °F - 44.6 °F 100% 30.54 in 10.0 mi Calm Calm - N/A   Overcast
10:55 PM 44.6 °F - 44.6 °F 100% 30.53 in 10.0 mi Calm Calm - N/A   Overcast
11:15 PM 46.4 °F - 46.4 °F 100% 30.54 in 10.0 mi Calm Calm - N/A   Overcast
11:35 PM 44.6 °F - 44.6 °F 100% 30.54 in 10.0 mi Calm Calm - N/A   Overcast
11:55 PM 44.6 °F - 44.6 °F 100% 30.54 in 9.0 mi Calm Calm - N/A   Overcast